Corpus Christi, TX

1:48 PM CDT on June 28, 2017 (GMT -0500)
Corpus Christi International

Weather History for KCRP - December, 2012

Change the Weather History Date:

Friday, December 21, 2012

  Actual Average Record
Temperature  
Mean Temperature 45 °F 58 °F  
Max Temperature 61 °F 67 °F 87 °F (1990)
Min Temperature 29 °F 48 °F 18 °F (1973)
Degree Days  
Heating Degree Days 20 9  
Month to date heating degree days 70 159  
Since 1 July heating degree days 109 260  
Cooling Degree Days 0 1  
Month to date cooling degree days 130 39  
Year to date cooling degree days 4501 3514  
Moisture  
Dew Point 18 °F    
Average Humidity 33    
Maximum Humidity 52    
Minimum Humidity 13    
Precipitation  
Precipitation 0.00 in 0.07 in 6.77 in (1991)
Month to date precipitation 0.02 1.19  
Year to date precipitation 18.81 31.12  
Snow  
Snow 0.00 in - - ()
Month to date snowfall 0.0  
Since 1 July snowfall 0.0  
Snow Depth 0.00 in    
Sea Level Pressure  
Sea Level Pressure 30.45 in    
Wind  
Wind Speed 5 mph (NNE)    
Max Wind Speed 12 mph    
Max Gust Speed 13 mph    
Visibility 10 miles    
Events      
T = Trace of Precipitation, MM = Missing Value Source: NWS Daily Summary

Daily Weather History Graph

Daily Weather History Graph

Search for Another Location

Airport or City:

Trip Planner

Search our weather history database for the weather conditions in past years. The results will help you decide how hot, cold, wet, or windy it might be!

Date:

Astronomy

Dec. 21, 2012 Rise Set
Actual Time 7:16 AM CST 5:39 PM CST
Civil Twilight 6:51 AM CST 6:05 PM CST
Nautical Twilight 6:21 AM CST 6:34 PM CST
Astronomical Twilight 5:53 AM CST 7:03 PM CST
Moon 1:08 PM CST (12/21) 1:26 AM CST (12/21)
Length of Visible Light 11h 14m
Length of Day
10h 23m
Waxing Gibbous, 65% of the Moon is Illuminated
Dec 21
Waxing Gibbous
Dec 28
Full
Jan 4
Last Quarter
Jan 11
New
Jan 18
First Quarter

Hourly Weather History & Observations

Time (CST) Temp. Windchill Dew Point Humidity Pressure Visibility Wind Dir Wind Speed Gust Speed Precip Events Conditions
12:51 AM 37.9 °F 33.5 °F 7.0 °F 28% 30.49 in 10.0 mi NW 5.8 mph - N/A   Clear
1:51 AM 37.0 °F 34.5 °F 8.1 °F 30% 30.49 in 10.0 mi NNW 3.5 mph - N/A   Clear
2:51 AM 37.9 °F 34.4 °F 9.0 °F 30% 30.49 in 10.0 mi NW 4.6 mph - N/A   Clear
3:51 AM 33.1 °F 26.9 °F 8.1 °F 35% 30.48 in 10.0 mi NNW 6.9 mph - N/A   Clear
4:51 AM 33.1 °F 24.9 °F 10.9 °F 40% 30.48 in 10.0 mi North 10.4 mph - N/A   Clear
5:51 AM 33.8 °F 28.6 °F 8.6 °F 35% 30.49 in 10.0 mi NW 5.8 mph - N/A   Clear
6:51 AM 30.0 °F 25.2 °F 7.0 °F 38% 30.51 in 10.0 mi WNW 4.6 mph - N/A   Clear
7:51 AM 37.0 °F 34.5 °F 10.0 °F 33% 30.51 in 10.0 mi WNW 3.5 mph - N/A   Clear
8:51 AM 44.1 °F 40.1 °F 12.9 °F 28% 30.55 in 10.0 mi NW 6.9 mph - N/A   Clear
9:51 AM 51.1 °F - 10.9 °F 20% 30.54 in 10.0 mi North 3.5 mph - N/A   Clear
10:51 AM 53.1 °F - 12.0 °F 20% 30.55 in 9.0 mi North 4.6 mph - N/A   Clear
11:51 AM 53.1 °F - 12.0 °F 20% 30.52 in 10.0 mi Calm Calm - N/A   Scattered Clouds
12:51 PM 57.0 °F - 7.0 °F 14% 30.48 in 10.0 mi ENE 4.6 mph - N/A   Clear
1:51 PM 57.9 °F - 7.0 °F 13% 30.47 in 10.0 mi NNE 5.8 mph - N/A   Clear
2:51 PM 57.9 °F - 10.9 °F 16% 30.43 in 10.0 mi East 3.5 mph - N/A   Clear
3:51 PM 59.0 °F - 17.6 °F 20% 30.39 in 10.0 mi East 8.1 mph - N/A   Partly Cloudy
4:51 PM 57.9 °F - 28.9 °F 33% 30.39 in 10.0 mi East 10.4 mph - N/A   Scattered Clouds
5:51 PM 57.0 °F - 30.9 °F 37% 30.38 in 10.0 mi East 8.1 mph - N/A   Scattered Clouds
6:51 PM 55.0 °F - 33.1 °F 43% 30.39 in 10.0 mi ENE 4.6 mph - N/A   Scattered Clouds
7:51 PM 53.6 °F - 33.8 °F 47% 30.40 in 10.0 mi NE 5.8 mph - N/A   Partly Cloudy
8:51 PM 52.0 °F - 32.0 °F 47% 30.39 in 10.0 mi NNE 3.5 mph - N/A   Partly Cloudy
9:51 PM 52.0 °F - 30.9 °F 45% 30.38 in 10.0 mi NE 4.6 mph - N/A   Partly Cloudy
10:51 PM 50.0 °F - 34.0 °F 54% 30.38 in 10.0 mi NE 3.5 mph - N/A   Partly Cloudy
11:51 PM 51.1 °F - 35.1 °F 54% 30.36 in 10.0 mi NE 8.1 mph - N/A   Partly Cloudy